Location: *
(48.8489°N, 2.3218°E)
Time: 12:18:53
(UTC+00:00)

USA 229 - Pass Details

Date: 23 August 2019
Orbit: 1005 x 1207 km, 63.4° (Epoch: 31 August)

Event Time Altitude Azimuth Distance (km) Brightness Sun altitude
Rises 20:35:11 0° 317° (NW) 3,929 8.4 -15.7°
Reaches altitude 10° 20:37:50 10° 320° (NW) 2,998 7.4 -16.1°
Maximum altitude 20:45:01 71° 44° (NE) 1,218 3.9 -17.0°
Enters shadow 20:49:37 26° 124° (SE) 2,154 4.7 -17.5°
